FLOCK 4P-9 (44807 NORAD) Tracking and Keplerian Element Data

This shows tracking and keplerian element data for the satellite.

Feedback or suggestion? Click here.




ElementValue
Catalog44807
NameFLOCK 4P-9
Epoch Orbit7454
Epoch Day90.92400801
Epoch Year2021
RAAN155.459
Inclination97.4559
Eccentricity0.0012551
Argument of Perigee341.9575
Mean Anonmoly18.1213
Mean Motion15.21093191
Decay Rate2.726E-05
L11 44807U 19081D 21090.92400801 .00002726 00000-0 12553-3 0 9994
L22 44807 97.4559 155.4590 0012551 341.9575 18.1213 15.21093191 74549



Live tracking and technical data element details for FLOCK 4P-9 (NORAD 44807). FLOCK 4P-9 can be tracked NOW for your location showing map with azimuth and elevation plus other details from your city location.







IsCatalogInMostPopularTable: catalog: 44807, numindb: 311
Update: records affected: 1



GetName: 44807 FLOCK 4P-9

Hit Count: updated at: Sat, 06 Dec 2025 12:15:34 GMT